{"data":{"norad_id":84292,"intl_designator":"","name":"UNKNOWN","alt_names":[],"object_type":"UNKNOWN","status":"UNKNOWN","operator":null,"country":null,"launch_date":null,"launch_site_code":null,"launch_vehicle":null,"mission":null,"orbit_class":"UNKNOWN","rcs_meters":null,"size_class":null,"mass_kg":null,"dimensions":null,"purposes":[],"wikipedia_slug":null,"has_3d_model":false,"image_url":null,"decayed_at":null,"tle_current":{"epoch":"2026-09-18T06:04:09.622560Z","epoch_age_seconds":216175,"freshness":"STALE","line1":"1 84292U          26261.25288915  .00001438  00000+0  10518-2 0  9994","line2":"2 84292  23.8040 133.0986 4535241 193.5954 148.3271  6.23067660245489","mean_motion":6.2306766,"eccentricity":0.4535241,"inclination_deg":23.804,"raan_deg":133.0986,"arg_perigee_deg":193.5954,"mean_anomaly_deg":148.3271,"bstar":0.0010518,"rev_number":24548,"period_min":231.11454701404,"perigee_km":439.22018267209,"apogee_km":11754.763212657,"semimajor_km":12475.128697665,"source":"CELESTRAK","updated_at":"2026-09-20T09:00:32.443062Z"}}}